Time,TemperatureF,DewpointF,PressureIn,WindDirection,WindDirectionDegrees,WindSpeedMPH,WindSpeedGustMPH,Humidity,HourlyPrecipIn,Conditions,Clouds,dailyrainin,SoftwareType,DateUTC
2013-01-23 00:01:00,26.6,2.4,30.26,WNW,293,2.2,3.1,35,0.00,,,0.00,WUHU216HW,2013-01-23 05:01:00,
2013-01-23 00:03:00,26.6,3.1,30.26,WNW,293,1.8,3.1,36,0.00,,,0.00,WUHU216HW,2013-01-23 05:03:00,
2013-01-23 00:08:00,26.6,3.1,30.27,NW,315,2.0,3.1,36,0.00,,,0.00,WUHU216HW,2013-01-23 05:08:00,
2013-01-23 00:13:00,26.6,3.1,30.27,NNW,338,2.5,4.0,36,0.00,,,0.00,WUHU216HW,2013-01-23 05:13:00,
2013-01-23 00:18:00,26.6,3.1,30.27,NNW,338,2.5,4.0,36,0.00,,,0.00,WUHU216HW,2013-01-23 05:18:00,
2013-01-23 00:23:00,26.6,2.4,30.27,WNW,293,2.5,3.8,35,0.00,,,0.00,WUHU216HW,2013-01-23 05:23:00,
2013-01-23 00:28:00,26.6,3.1,30.27,NW,315,2.0,3.8,36,0.00,,,0.00,WUHU216HW,2013-01-23 05:28:00,
2013-01-23 00:33:00,26.5,2.9,30.28,NW,315,1.8,3.4,36,0.00,,,0.00,WUHU216HW,2013-01-23 05:33:00,
2013-01-23 00:38:00,26.5,2.9,30.27,NW,315,1.6,3.1,36,0.00,,,0.00,WUHU216HW,2013-01-23 05:38:00,
2013-01-23 00:43:00,26.5,2.9,30.27,WNW,293,2.9,3.4,36,0.00,,,0.00,WUHU216HW,2013-01-23 05:43:00,
2013-01-23 00:48:00,26.5,3.5,30.27,NW,315,1.3,3.4,37,0.00,,,0.00,WUHU216HW,2013-01-23 05:48:00,
2013-01-23 00:53:00,26.5,3.5,30.27,NNW,338,2.5,2.9,37,0.00,,,0.00,WUHU216HW,2013-01-23 05:53:00,
2013-01-23 00:58:00,26.5,3.5,30.27,NNW,338,1.8,2.9,37,0.00,,,0.00,WUHU216HW,2013-01-23 05:58:00,
2013-01-23 01:03:00,26.5,3.5,30.27,NNW,338,1.8,3.1,37,0.00,,,0.00,WUHU216HW,2013-01-23 06:03:00,
2013-01-23 01:08:00,26.5,4.1,30.27,NW,315,1.8,3.1,38,0.00,,,0.00,WUHU216HW,2013-01-23 06:08:00,
2013-01-23 01:13:00,26.3,4.0,30.27,WNW,293,2.7,3.4,38,0.00,,,0.00,WUHU216HW,2013-01-23 06:13:00,
2013-01-23 01:18:00,26.3,4.0,30.28,NW,315,1.8,3.4,38,0.00,,,0.00,WUHU216HW,2013-01-23 06:18:00,
2013-01-23 01:23:00,26.3,4.0,30.28,NW,315,2.0,2.9,38,0.00,,,0.00,WUHU216HW,2013-01-23 06:23:00,
2013-01-23 01:28:00,26.3,4.0,30.28,NW,315,1.8,2.9,38,0.00,,,0.00,WUHU216HW,2013-01-23 06:28:00,
2013-01-23 01:33:00,26.3,4.6,30.28,NW,315,1.8,2.5,39,0.00,,,0.00,WUHU216HW,2013-01-23 06:33:00,
2013-01-23 01:38:00,26.3,4.6,30.28,WNW,293,2.2,2.7,39,0.00,,,0.00,WUHU216HW,2013-01-23 06:38:00,
2013-01-23 01:43:00,26.3,4.6,30.28,NW,315,2.7,2.7,39,0.00,,,0.00,WUHU216HW,2013-01-23 06:43:00,
2013-01-23 01:48:00,26.3,5.2,30.28,NW,315,2.5,2.7,40,0.00,,,0.00,WUHU216HW,2013-01-23 06:48:00,
2013-01-23 01:53:00,26.3,5.2,30.28,NW,315,1.8,2.7,40,0.00,,,0.00,WUHU216HW,2013-01-23 06:53:00,
2013-01-23 01:58:00,26.3,5.2,30.28,NNW,338,1.8,3.1,40,0.00,,,0.00,WUHU216HW,2013-01-23 06:58:00,
2013-01-23 02:03:00,26.3,5.2,30.29,NW,315,2.5,4.7,40,0.00,,,0.00,WUHU216HW,2013-01-23 07:03:00,
2013-01-23 02:08:00,26.3,5.2,30.29,WNW,293,2.5,4.7,40,0.00,,,0.00,WUHU216HW,2013-01-23 07:08:00,
2013-01-23 02:13:00,26.3,5.2,30.29,NNW,338,2.5,3.1,40,0.00,,,0.00,WUHU216HW,2013-01-23 07:13:00,
2013-01-23 02:18:00,26.3,4.6,30.29,WNW,293,2.5,4.3,39,0.00,,,0.00,WUHU216HW,2013-01-23 07:18:00,
2013-01-23 02:23:00,26.3,5.2,30.29,NNW,338,2.5,4.3,40,0.00,,,0.00,WUHU216HW,2013-01-23 07:23:00,
2013-01-23 02:28:00,26.3,5.2,30.29,West,270,2.5,3.4,40,0.00,,,0.00,WUHU216HW,2013-01-23 07:28:00,
2013-01-23 02:33:00,26.3,5.8,30.29,WNW,293,1.8,3.4,41,0.00,,,0.00,WUHU216HW,2013-01-23 07:33:00,
2013-01-23 02:38:00,26.3,4.6,30.29,WNW,293,2.0,3.8,39,0.00,,,0.00,WUHU216HW,2013-01-23 07:38:00,
2013-01-23 02:43:00,26.3,5.2,30.29,WNW,293,1.3,3.8,40,0.00,,,0.00,WUHU216HW,2013-01-23 07:43:00,
2013-01-23 02:48:00,26.3,5.2,30.29,NW,315,1.8,3.1,40,0.00,,,0.00,WUHU216HW,2013-01-23 07:48:00,
2013-01-23 02:53:00,26.3,5.8,30.29,NW,315,2.0,2.0,41,0.00,,,0.00,WUHU216HW,2013-01-23 07:53:00,
2013-01-23 02:58:00,26.3,5.8,30.29,WNW,293,2.5,3.4,41,0.00,,,0.00,WUHU216HW,2013-01-23 07:58:00,
2013-01-23 03:03:00,26.3,4.6,30.29,WNW,293,1.8,3.4,39,0.00,,,0.00,WUHU216HW,2013-01-23 08:03:00,
2013-01-23 03:08:00,26.3,5.8,30.29,West,270,1.3,2.7,41,0.00,,,0.00,WUHU216HW,2013-01-23 08:08:00,
2013-01-23 03:13:00,26.3,5.8,30.29,West,270,1.3,2.7,41,0.00,,,0.00,WUHU216HW,2013-01-23 08:13:00,
2013-01-23 03:18:00,26.3,5.8,30.29,West,270,1.1,2.7,41,0.00,,,0.00,WUHU216HW,2013-01-23 08:18:00,
2013-01-23 03:23:00,26.3,5.8,30.29,West,270,1.8,2.2,41,0.00,,,0.00,WUHU216HW,2013-01-23 08:23:00,
2013-01-23 03:28:00,26.3,5.8,30.29,NNW,338,2.0,2.2,41,0.00,,,0.00,WUHU216HW,2013-01-23 08:28:00,
2013-01-23 03:33:00,26.3,5.8,30.29,WSW,248,2.7,3.4,41,0.00,,,0.00,WUHU216HW,2013-01-23 08:33:00,
2013-01-23 03:38:00,26.3,5.8,30.29,WNW,293,1.1,3.4,41,0.00,,,0.00,WUHU216HW,2013-01-23 08:38:00,
2013-01-23 03:43:00,26.3,5.8,30.29,West,270,1.1,2.7,41,0.00,,,0.00,WUHU216HW,2013-01-23 08:43:00,
2013-01-23 03:48:00,26.3,5.8,30.29,WSW,248,1.1,2.2,41,0.00,,,0.00,WUHU216HW,2013-01-23 08:48:00,
2013-01-23 03:53:00,26.3,5.2,30.29,NW,315,1.1,2.2,40,0.00,,,0.00,WUHU216HW,2013-01-23 08:53:00,
2013-01-23 03:58:00,26.3,5.8,30.29,West,270,1.1,2.2,41,0.00,,,0.00,WUHU216HW,2013-01-23 08:58:00,
2013-01-23 04:03:00,26.3,5.2,30.29,WSW,248,1.3,2.2,40,0.00,,,0.00,WUHU216HW,2013-01-23 09:03:00,
2013-01-23 04:08:00,26.3,5.8,30.29,NW,315,1.3,2.2,41,0.00,,,0.00,WUHU216HW,2013-01-23 09:08:00,
2013-01-23 04:13:00,26.3,5.8,30.29,NW,315,0.9,1.8,41,0.00,,,0.00,WUHU216HW,2013-01-23 09:13:00,
2013-01-23 04:18:00,26.3,5.8,30.28,West,270,0.9,2.5,41,0.00,,,0.00,WUHU216HW,2013-01-23 09:18:00,
2013-01-23 04:23:00,26.3,5.8,30.28,WNW,293,1.3,2.5,41,0.00,,,0.00,WUHU216HW,2013-01-23 09:23:00,
2013-01-23 04:28:00,26.3,5.8,30.28,WNW,293,0.9,2.9,41,0.00,,,0.00,WUHU216HW,2013-01-23 09:28:00,
2013-01-23 04:33:00,26.3,6.2,30.28,SW,225,1.8,2.9,42,0.00,,,0.00,WUHU216HW,2013-01-23 09:33:00,
2013-01-23 04:38:00,26.3,6.2,30.28,West,270,1.1,1.8,42,0.00,,,0.00,WUHU216HW,2013-01-23 09:38:00,
2013-01-23 04:43:00,26.3,6.2,30.28,WNW,293,0.9,1.6,42,0.00,,,0.00,WUHU216HW,2013-01-23 09:43:00,
2013-01-23 04:48:00,26.3,5.8,30.28,West,270,1.1,2.5,41,0.00,,,0.00,WUHU216HW,2013-01-23 09:48:00,
2013-01-23 04:53:00,26.3,6.2,30.29,West,270,1.8,2.5,42,0.00,,,0.00,WUHU216HW,2013-01-23 09:53:00,
2013-01-23 04:59:00,26.3,5.2,30.29,WNW,293,1.1,2.5,40,0.00,,,0.00,WUHU216HW,2013-01-23 09:59:00,
2013-01-23 05:04:00,26.3,6.2,30.29,NW,315,3.8,3.8,42,0.00,,,0.00,WUHU216HW,2013-01-23 10:04:00,
2013-01-23 05:09:00,26.3,6.2,30.29,WNW,293,1.3,3.8,42,0.00,,,0.00,WUHU216HW,2013-01-23 10:09:00,
2013-01-23 05:14:00,26.3,6.2,30.29,NW,315,0.4,3.8,42,0.00,,,0.00,WUHU216HW,2013-01-23 10:14:00,
2013-01-23 05:19:00,26.3,6.2,30.29,West,270,0.4,1.3,42,0.00,,,0.00,WUHU216HW,2013-01-23 10:19:00,
2013-01-23 05:24:00,26.3,6.2,30.29,WNW,293,1.3,1.3,42,0.00,,,0.00,WUHU216HW,2013-01-23 10:24:00,
2013-01-23 05:29:00,26.3,6.8,30.29,WNW,293,0.4,1.3,43,0.00,,,0.00,WUHU216HW,2013-01-23 10:29:00,
2013-01-23 05:34:00,26.3,6.8,30.29,West,270,0.4,1.3,43,0.00,,,0.00,WUHU216HW,2013-01-23 10:34:00,
2013-01-23 05:39:00,26.3,6.2,30.29,West,270,0.9,1.1,42,0.00,,,0.00,WUHU216HW,2013-01-23 10:39:00,
2013-01-23 05:44:00,26.3,6.2,30.29,West,270,1.1,1.3,42,0.00,,,0.00,WUHU216HW,2013-01-23 10:44:00,
2013-01-23 05:49:00,26.3,6.8,30.29,NW,315,0.4,1.3,43,0.00,,,0.00,WUHU216HW,2013-01-23 10:49:00,
2013-01-23 05:54:00,26.3,6.8,30.29,West,270,0.4,1.3,43,0.00,,,0.00,WUHU216HW,2013-01-23 10:54:00,
2013-01-23 05:59:00,26.3,6.8,30.29,WNW,293,0.9,1.8,43,0.00,,,0.00,WUHU216HW,2013-01-23 10:59:00,
2013-01-23 06:04:00,26.3,6.8,30.29,WNW,293,0.7,1.8,43,0.00,,,0.00,WUHU216HW,2013-01-23 11:04:00,
2013-01-23 06:09:00,26.3,6.8,30.29,WSW,248,1.1,2.2,43,0.00,,,0.00,WUHU216HW,2013-01-23 11:09:00,
2013-01-23 06:14:00,26.3,6.8,30.29,NNW,338,1.1,2.2,43,0.00,,,0.00,WUHU216HW,2013-01-23 11:14:00,
2013-01-23 06:19:00,26.3,6.8,30.29,NW,315,1.1,2.2,43,0.00,,,0.00,WUHU216HW,2013-01-23 11:19:00,
2013-01-23 06:24:00,26.3,6.8,30.29,NW,315,1.1,2.2,43,0.00,,,0.00,WUHU216HW,2013-01-23 11:24:00,
2013-01-23 06:29:00,26.3,6.2,30.29,WNW,293,1.1,2.5,42,0.00,,,0.00,WUHU216HW,2013-01-23 11:29:00,
2013-01-23 06:34:00,26.1,6.6,30.29,West,270,0.7,2.5,43,0.00,,,0.00,WUHU216HW,2013-01-23 11:34:00,
2013-01-23 06:39:00,26.1,6.6,30.29,WNW,293,0.7,1.8,43,0.00,,,0.00,WUHU216HW,2013-01-23 11:39:00,
2013-01-23 06:44:00,25.7,6.2,30.29,WNW,293,0.7,1.6,43,0.00,,,0.00,WUHU216HW,2013-01-23 11:44:00,
2013-01-23 06:49:00,25.6,6.0,30.29,WNW,293,0.7,1.6,43,0.00,,,0.00,WUHU216HW,2013-01-23 11:49:00,
2013-01-23 06:54:00,25.6,5.6,30.29,West,270,0.7,1.1,42,0.00,,,0.00,WUHU216HW,2013-01-23 11:54:00,
2013-01-23 06:59:00,25.4,6.0,30.30,West,270,0.0,1.1,43,0.00,,,0.00,WUHU216HW,2013-01-23 11:59:00,
2013-01-23 07:04:00,25.4,6.0,30.29,WNW,293,0.4,0.7,43,0.00,,,0.00,WUHU216HW,2013-01-23 12:04:00,
2013-01-23 07:09:00,25.2,5.8,30.29,WNW,293,0.0,0.7,43,0.00,,,0.00,WUHU216HW,2013-01-23 12:09:00,
2013-01-23 07:14:00,25.2,5.8,30.30,WNW,293,0.0,0.7,43,0.00,,,0.00,WUHU216HW,2013-01-23 12:14:00,
2013-01-23 07:19:00,25.2,5.8,30.30,WNW,293,0.0,0.2,43,0.00,,,0.00,WUHU216HW,2013-01-23 12:19:00,
2013-01-23 07:24:00,25.0,5.6,30.30,WNW,293,0.0,0.0,43,0.00,,,0.00,WUHU216HW,2013-01-23 12:24:00,
2013-01-23 07:29:00,24.8,6.0,30.30,WNW,293,0.2,0.2,44,0.00,,,0.00,WUHU216HW,2013-01-23 12:29:00,
2013-01-23 07:34:00,24.8,6.0,30.30,WNW,293,0.0,0.4,44,0.00,,,0.00,WUHU216HW,2013-01-23 12:34:00,
2013-01-23 07:39:00,24.8,6.0,30.30,WNW,293,0.0,0.4,44,0.00,,,0.00,WUHU216HW,2013-01-23 12:39:00,
2013-01-23 07:44:00,24.8,6.0,30.30,WNW,293,0.2,0.7,44,0.00,,,0.00,WUHU216HW,2013-01-23 12:44:00,
2013-01-23 07:49:00,24.7,5.8,30.30,WNW,293,0.0,0.7,44,0.00,,,0.00,WUHU216HW,2013-01-23 12:49:00,
2013-01-23 07:54:00,24.7,5.8,30.30,West,270,0.0,0.4,44,0.00,,,0.00,WUHU216HW,2013-01-23 12:54:00,
2013-01-23 07:59:00,24.7,5.8,30.30,West,270,0.0,0.4,44,0.00,,,0.00,WUHU216HW,2013-01-23 12:59:00,
2013-01-23 08:04:00,24.5,6.0,30.30,West,270,0.4,0.4,45,0.00,,,0.00,WUHU216HW,2013-01-23 13:04:00,
2013-01-23 08:09:00,24.5,6.0,30.30,WNW,293,0.9,0.9,45,0.00,,,0.00,WUHU216HW,2013-01-23 13:09:00,
2013-01-23 08:14:00,24.5,6.0,30.30,WNW,293,1.1,1.1,45,0.00,,,0.00,WUHU216HW,2013-01-23 13:14:00,
2013-01-23 08:19:00,24.5,6.0,30.30,WNW,293,0.4,1.1,45,0.00,,,0.00,WUHU216HW,2013-01-23 13:19:00,
2013-01-23 08:24:00,24.7,6.2,30.30,SSW,203,0.0,1.1,45,0.00,,,0.00,WUHU216HW,2013-01-23 13:24:00,
2013-01-23 08:29:00,24.7,6.2,30.30,SSW,203,0.0,0.4,45,0.00,,,0.00,WUHU216HW,2013-01-23 13:29:00,
2013-01-23 08:34:00,24.7,6.2,30.30,South,180,0.4,0.4,45,0.00,,,0.00,WUHU216HW,2013-01-23 13:34:00,
2013-01-23 08:39:00,24.8,6.8,30.29,SW,225,0.0,0.7,46,0.00,,,0.00,WUHU216HW,2013-01-23 13:39:00,
2013-01-23 08:44:00,24.8,6.8,30.29,WSW,248,0.0,0.7,46,0.00,,,0.00,WUHU216HW,2013-01-23 13:44:00,
2013-01-23 08:49:00,25.0,7.0,30.30,WSW,248,0.0,0.4,46,0.00,,,0.00,WUHU216HW,2013-01-23 13:49:00,
2013-01-23 08:54:00,25.2,7.2,30.30,WSW,248,0.0,0.4,46,0.00,,,0.00,WUHU216HW,2013-01-23 13:54:00,
2013-01-23 08:59:00,25.4,7.4,30.30,WSW,248,0.0,0.0,46,0.00,,,0.00,WUHU216HW,2013-01-23 13:59:00,
2013-01-23 09:04:00,25.6,7.6,30.30,WSW,248,0.0,0.0,46,0.00,,,0.00,WUHU216HW,2013-01-23 14:04:00,
2013-01-23 09:09:00,25.6,8.0,30.31,WNW,293,0.4,0.9,47,0.00,,,0.00,WUHU216HW,2013-01-23 14:09:00,
2013-01-23 09:14:00,25.9,8.8,30.31,West,270,0.4,1.3,48,0.00,,,0.00,WUHU216HW,2013-01-23 14:14:00,
2013-01-23 09:19:00,26.3,8.6,30.31,SW,225,0.9,1.3,47,0.00,,,0.00,WUHU216HW,2013-01-23 14:19:00,
2013-01-23 09:24:00,26.5,8.8,30.31,WSW,248,1.1,2.5,47,0.00,,,0.00,WUHU216HW,2013-01-23 14:24:00,
2013-01-23 09:29:00,26.6,8.5,30.31,WNW,293,1.3,2.5,46,0.00,,,0.00,WUHU216HW,2013-01-23 14:29:00,
2013-01-23 09:34:00,26.8,8.6,30.31,WSW,248,1.6,2.5,46,0.00,,,0.00,WUHU216HW,2013-01-23 14:34:00,
2013-01-23 09:39:00,27.0,8.8,30.32,WNW,293,2.0,2.5,46,0.00,,,0.00,WUHU216HW,2013-01-23 14:39:00,
2013-01-23 09:44:00,27.4,9.2,30.32,WSW,248,0.9,2.5,46,0.00,,,0.00,WUHU216HW,2013-01-23 14:44:00,
2013-01-23 09:49:00,27.5,8.9,30.32,NNW,338,1.6,2.5,45,0.00,,,0.00,WUHU216HW,2013-01-23 14:49:00,
2013-01-23 09:54:00,27.7,9.0,30.32,NW,315,1.8,2.5,45,0.00,,,0.00,WUHU216HW,2013-01-23 14:54:00,
2013-01-23 09:59:00,27.9,9.2,30.32,SSW,203,1.6,2.5,45,0.00,,,0.00,WUHU216HW,2013-01-23 14:59:00,
2013-01-23 10:04:00,28.1,8.9,30.32,West,270,1.8,2.9,44,0.00,,,0.00,WUHU216HW,2013-01-23 15:04:00,
2013-01-23 10:09:00,28.4,9.2,30.32,WNW,293,3.6,3.6,44,0.00,,,0.00,WUHU216HW,2013-01-23 15:09:00,
2013-01-23 10:14:00,28.6,9.4,30.32,WNW,293,1.6,3.6,44,0.00,,,0.00,WUHU216HW,2013-01-23 15:14:00,
2013-01-23 10:19:00,28.8,9.0,30.32,WNW,293,2.0,3.6,43,0.00,,,0.00,WUHU216HW,2013-01-23 15:19:00,
2013-01-23 10:24:00,29.2,9.4,30.32,WNW,293,2.2,2.9,43,0.00,,,0.00,WUHU216HW,2013-01-23 15:24:00,
2013-01-23 10:29:00,29.3,9.6,30.32,WNW,293,1.1,2.9,43,0.00,,,0.00,WUHU216HW,2013-01-23 15:29:00,
2013-01-23 10:34:00,29.5,9.7,30.31,WNW,293,1.1,2.9,43,0.00,,,0.00,WUHU216HW,2013-01-23 15:34:00,
2013-01-23 10:39:00,29.9,10.0,30.32,WNW,293,1.3,2.9,43,0.00,,,0.00,WUHU216HW,2013-01-23 15:39:00,
2013-01-23 10:44:00,30.2,10.4,30.31,West,270,0.9,2.9,43,0.00,,,0.00,WUHU216HW,2013-01-23 15:44:00,
2013-01-23 10:49:00,30.6,10.6,30.32,WSW,248,1.8,3.6,43,0.00,,,0.00,WUHU216HW,2013-01-23 15:49:00,
2013-01-23 10:54:00,30.8,10.8,30.31,NW,315,1.6,4.0,43,0.00,,,0.00,WUHU216HW,2013-01-23 15:54:00,
2013-01-23 10:59:00,31.0,11.0,30.31,WNW,293,1.6,4.0,43,0.00,,,0.00,WUHU216HW,2013-01-23 15:59:00,
2013-01-23 11:04:00,31.3,11.8,30.31,SW,225,1.1,3.8,44,0.00,,,0.00,WUHU216HW,2013-01-23 16:04:00,
2013-01-23 11:09:00,31.7,12.2,30.31,NNW,338,4.3,4.5,44,0.00,,,0.00,WUHU216HW,2013-01-23 16:09:00,
2013-01-23 11:14:00,32.0,12.4,30.31,NW,315,1.1,4.5,44,0.00,,,0.00,WUHU216HW,2013-01-23 16:14:00,
2013-01-23 11:19:00,32.2,12.6,30.31,WSW,248,1.1,4.7,44,0.00,,,0.00,WUHU216HW,2013-01-23 16:19:00,
2013-01-23 11:24:00,32.8,13.2,30.30,NNW,338,3.1,4.7,44,0.00,,,0.00,WUHU216HW,2013-01-23 16:24:00,
2013-01-23 11:29:00,32.9,13.2,30.30,WNW,293,3.4,4.5,44,0.00,,,0.00,WUHU216HW,2013-01-23 16:29:00,
2013-01-23 11:34:00,33.1,13.4,30.30,North,0,1.3,5.1,44,0.00,,,0.00,WUHU216HW,2013-01-23 16:34:00,
2013-01-23 11:39:00,33.5,14.2,30.29,SW,225,2.7,5.1,45,0.00,,,0.00,WUHU216HW,2013-01-23 16:39:00,
2013-01-23 11:44:00,33.8,14.0,30.29,WNW,293,1.6,4.0,44,0.00,,,0.00,WUHU216HW,2013-01-23 16:44:00,
2013-01-23 11:49:00,34.2,14.4,30.29,WNW,293,1.8,4.0,44,0.00,,,0.00,WUHU216HW,2013-01-23 16:49:00,
2013-01-23 11:54:00,34.4,14.6,30.29,NW,315,1.3,3.4,44,0.00,,,0.00,WUHU216HW,2013-01-23 16:54:00,
2013-01-23 11:59:00,34.7,15.0,30.28,WSW,248,2.0,3.4,44,0.00,,,0.00,WUHU216HW,2013-01-23 16:59:00,
2013-01-23 12:04:00,34.9,15.1,30.28,North,0,2.5,4.7,44,0.00,,,0.00,WUHU216HW,2013-01-23 17:04:00,
2013-01-23 12:09:00,34.7,15.0,30.27,WSW,248,2.9,4.7,44,0.00,,,0.00,WUHU216HW,2013-01-23 17:09:00,
2013-01-23 12:14:00,35.1,15.8,30.27,NW,315,3.6,3.6,45,0.00,,,0.00,WUHU216HW,2013-01-23 17:14:00,
2013-01-23 12:19:00,35.5,16.1,30.26,West,270,3.1,3.6,45,0.00,,,0.00,WUHU216HW,2013-01-23 17:19:00,
2013-01-23 12:24:00,35.5,15.6,30.26,SW,225,1.1,3.6,44,0.00,,,0.00,WUHU216HW,2013-01-23 17:24:00,
2013-01-23 12:29:00,35.8,15.9,30.25,North,0,4.0,5.6,44,0.00,,,0.00,WUHU216HW,2013-01-23 17:29:00,
2013-01-23 12:34:00,35.6,16.3,30.25,West,270,3.6,5.6,45,0.00,,,0.00,WUHU216HW,2013-01-23 17:34:00,
2013-01-23 12:39:00,35.8,15.9,30.25,WSW,248,1.3,5.1,44,0.00,,,0.00,WUHU216HW,2013-01-23 17:39:00,
2013-01-23 12:44:00,36.0,16.1,30.24,WNW,293,4.0,4.9,44,0.00,,,0.00,WUHU216HW,2013-01-23 17:44:00,
2013-01-23 12:49:00,35.8,16.5,30.24,WSW,248,2.9,4.9,45,0.00,,,0.00,WUHU216HW,2013-01-23 17:49:00,
2013-01-23 12:54:00,36.2,16.7,30.23,WSW,248,3.4,4.0,45,0.00,,,0.00,WUHU216HW,2013-01-23 17:54:00,
2013-01-23 12:59:00,36.5,17.1,30.23,West,270,4.7,4.7,45,0.00,,,0.00,WUHU216HW,2013-01-23 17:59:00,
2013-01-23 13:04:00,36.7,17.3,30.22,West,270,6.9,6.9,45,0.00,,,0.00,WUHU216HW,2013-01-23 18:04:00,
2013-01-23 13:09:00,37.1,17.6,30.22,North,0,2.9,6.9,45,0.00,,,0.00,WUHU216HW,2013-01-23 18:09:00,
2013-01-23 13:14:00,37.8,18.3,30.22,West,270,2.5,6.9,45,0.00,,,0.00,WUHU216HW,2013-01-23 18:14:00,
2013-01-23 13:19:00,38.2,18.5,30.22,WSW,248,2.9,4.3,45,0.00,,,0.00,WUHU216HW,2013-01-23 18:19:00,
2013-01-23 13:24:00,38.5,18.9,30.22,West,270,1.8,4.3,45,0.00,,,0.00,WUHU216HW,2013-01-23 18:24:00,
2013-01-23 13:29:00,38.5,17.8,30.21,NW,315,3.4,3.6,43,0.00,,,0.00,WUHU216HW,2013-01-23 18:29:00,
2013-01-23 13:34:00,38.3,18.2,30.21,WNW,293,2.5,4.3,44,0.00,,,0.00,WUHU216HW,2013-01-23 18:34:00,
2013-01-23 13:39:00,38.5,18.9,30.21,NNW,338,2.9,4.3,45,0.00,,,0.00,WUHU216HW,2013-01-23 18:39:00,
2013-01-23 13:44:00,39.1,19.4,30.21,WSW,248,2.2,4.7,45,0.00,,,0.00,WUHU216HW,2013-01-23 18:44:00,
2013-01-23 13:49:00,39.2,19.0,30.20,WSW,248,3.1,4.7,44,0.00,,,0.00,WUHU216HW,2013-01-23 18:49:00,
2013-01-23 13:54:00,39.6,19.4,30.20,NW,315,1.8,4.7,44,0.00,,,0.00,WUHU216HW,2013-01-23 18:54:00,
2013-01-23 13:59:00,39.6,19.4,30.20,WSW,248,3.4,4.7,44,0.00,,,0.00,WUHU216HW,2013-01-23 18:59:00,
2013-01-23 14:04:00,39.6,18.8,30.20,NW,315,4.0,6.0,43,0.00,,,0.00,WUHU216HW,2013-01-23 19:04:00,
2013-01-23 14:09:00,39.2,19.0,30.20,West,270,2.5,6.0,44,0.00,,,0.00,WUHU216HW,2013-01-23 19:09:00,
2013-01-23 14:14:00,39.2,19.0,30.19,West,270,2.5,4.7,44,0.00,,,0.00,WUHU216HW,2013-01-23 19:14:00,
2013-01-23 14:19:00,39.8,20.0,30.19,West,270,3.8,5.4,45,0.00,,,0.00,WUHU216HW,2013-01-23 19:19:00,
2013-01-23 14:24:00,40.0,19.2,30.19,West,270,3.4,5.4,43,0.00,,,0.00,WUHU216HW,2013-01-23 19:24:00,
2013-01-23 14:29:00,40.0,19.6,30.19,WNW,293,2.9,6.7,44,0.00,,,0.00,WUHU216HW,2013-01-23 19:29:00,
2013-01-23 14:34:00,40.1,20.3,30.19,SW,225,3.6,6.7,45,0.00,,,0.00,WUHU216HW,2013-01-23 19:34:00,
2013-01-23 14:39:00,40.5,20.2,30.19,NNW,338,5.4,6.7,44,0.00,,,0.00,WUHU216HW,2013-01-23 19:39:00,
2013-01-23 14:44:00,40.3,20.0,30.18,NW,315,3.4,5.4,44,0.00,,,0.00,WUHU216HW,2013-01-23 19:44:00,
2013-01-23 14:49:00,40.3,20.0,30.18,NNW,338,4.5,5.4,44,0.00,,,0.00,WUHU216HW,2013-01-23 19:49:00,
2013-01-23 14:54:00,40.5,20.2,30.18,WSW,248,4.5,5.4,44,0.00,,,0.00,WUHU216HW,2013-01-23 19:54:00,
2013-01-23 14:59:00,40.5,19.6,30.18,SW,225,3.1,5.4,43,0.00,,,0.00,WUHU216HW,2013-01-23 19:59:00,
2013-01-23 15:04:00,40.7,19.8,30.17,WSW,248,4.9,5.4,43,0.00,,,0.00,WUHU216HW,2013-01-23 20:04:00,
2013-01-23 15:09:00,40.5,20.2,30.17,SSW,203,3.4,7.2,44,0.00,,,0.00,WUHU216HW,2013-01-23 20:09:00,
2013-01-23 15:14:00,40.7,20.4,30.16,SW,225,5.6,7.2,44,0.00,,,0.00,WUHU216HW,2013-01-23 20:14:00,
2013-01-23 15:19:00,41.0,20.6,30.16,WNW,293,2.7,6.0,44,0.00,,,0.00,WUHU216HW,2013-01-23 20:19:00,
2013-01-23 15:24:00,40.9,20.4,30.16,West,270,3.4,6.0,44,0.00,,,0.00,WUHU216HW,2013-01-23 20:24:00,
2013-01-23 15:29:00,40.7,19.8,30.16,West,270,3.4,5.4,43,0.00,,,0.00,WUHU216HW,2013-01-23 20:29:00,
2013-01-23 15:34:00,40.7,20.4,30.16,WSW,248,4.7,5.8,44,0.00,,,0.00,WUHU216HW,2013-01-23 20:34:00,
2013-01-23 15:39:00,41.0,20.6,30.17,West,270,4.0,5.8,44,0.00,,,0.00,WUHU216HW,2013-01-23 20:39:00,
2013-01-23 15:44:00,41.4,21.0,30.16,NW,315,4.0,5.4,44,0.00,,,0.00,WUHU216HW,2013-01-23 20:44:00,
2013-01-23 15:49:00,42.3,21.8,30.16,WNW,293,1.8,4.9,44,0.00,,,0.00,WUHU216HW,2013-01-23 20:49:00,
2013-01-23 15:54:00,43.6,21.9,30.16,West,270,4.0,5.4,42,0.00,,,0.00,WUHU216HW,2013-01-23 20:54:00,
2013-01-23 15:59:00,43.4,21.2,30.16,NW,315,1.8,5.6,41,0.00,,,0.00,WUHU216HW,2013-01-23 20:59:00,
2013-01-23 16:04:00,43.0,21.4,30.16,West,270,3.6,5.6,42,0.00,,,0.00,WUHU216HW,2013-01-23 21:04:00,
2013-01-23 16:09:00,42.8,21.8,30.16,NNW,338,3.1,4.7,43,0.00,,,0.00,WUHU216HW,2013-01-23 21:09:00,
2013-01-23 16:14:00,42.3,20.7,30.16,West,270,2.9,5.1,42,0.00,,,0.00,WUHU216HW,2013-01-23 21:14:00,
2013-01-23 16:19:00,41.9,20.4,30.15,WNW,293,4.0,5.1,42,0.00,,,0.00,WUHU216HW,2013-01-23 21:19:00,
2013-01-23 16:24:00,42.1,21.2,30.15,West,270,3.1,4.7,43,0.00,,,0.00,WUHU216HW,2013-01-23 21:24:00,
2013-01-23 16:29:00,42.3,21.2,30.15,WNW,293,5.1,5.1,43,0.00,,,0.00,WUHU216HW,2013-01-23 21:29:00,
2013-01-23 16:34:00,42.8,21.2,30.15,WNW,293,3.8,5.4,42,0.00,,,0.00,WUHU216HW,2013-01-23 21:34:00,
2013-01-23 16:39:00,43.0,22.0,30.15,WNW,293,4.0,5.4,43,0.00,,,0.00,WUHU216HW,2013-01-23 21:39:00,
2013-01-23 16:44:00,42.1,20.6,30.15,NW,315,4.7,6.7,42,0.00,,,0.00,WUHU216HW,2013-01-23 21:44:00,
2013-01-23 16:49:00,41.8,20.8,30.15,WNW,293,2.9,6.7,43,0.00,,,0.00,WUHU216HW,2013-01-23 21:49:00,
2013-01-23 16:54:00,41.9,21.5,30.14,WSW,248,3.4,5.1,44,0.00,,,0.00,WUHU216HW,2013-01-23 21:54:00,
2013-01-23 16:59:00,41.6,20.6,30.14,West,270,3.1,4.7,43,0.00,,,0.00,WUHU216HW,2013-01-23 21:59:00,
2013-01-23 17:04:00,41.6,21.2,30.14,WNW,293,3.6,4.7,44,0.00,,,0.00,WUHU216HW,2013-01-23 22:04:00,
2013-01-23 17:09:00,41.4,21.0,30.14,West,270,3.1,4.7,44,0.00,,,0.00,WUHU216HW,2013-01-23 22:09:00,
2013-01-23 17:14:00,41.0,20.6,30.13,SW,225,2.2,4.0,44,0.00,,,0.00,WUHU216HW,2013-01-23 22:14:00,
2013-01-23 17:19:00,40.7,20.4,30.13,NNW,338,2.7,5.1,44,0.00,,,0.00,WUHU216HW,2013-01-23 22:19:00,
2013-01-23 17:24:00,40.5,20.7,30.13,West,270,2.5,5.1,45,0.00,,,0.00,WUHU216HW,2013-01-23 22:24:00,
2013-01-23 17:29:00,40.3,20.5,30.13,WNW,293,2.9,4.0,45,0.00,,,0.00,WUHU216HW,2013-01-23 22:29:00,
2013-01-23 17:34:00,40.1,20.9,30.13,West,270,2.5,4.0,46,0.00,,,0.00,WUHU216HW,2013-01-23 22:34:00,
2013-01-23 17:39:00,40.0,20.7,30.13,West,270,2.0,3.6,46,0.00,,,0.00,WUHU216HW,2013-01-23 22:39:00,
2013-01-23 17:44:00,39.6,20.3,30.13,WNW,293,1.1,2.5,46,0.00,,,0.00,WUHU216HW,2013-01-23 22:44:00,
2013-01-23 17:49:00,39.2,20.1,30.13,West,270,2.0,2.5,46,0.00,,,0.00,WUHU216HW,2013-01-23 22:49:00,
2013-01-23 17:54:00,39.1,19.9,30.13,WNW,293,1.8,3.6,46,0.00,,,0.00,WUHU216HW,2013-01-23 22:54:00,
2013-01-23 17:59:00,39.1,20.4,30.13,WNW,293,2.7,4.5,47,0.00,,,0.00,WUHU216HW,2013-01-23 22:59:00,
2013-01-23 18:04:00,38.7,20.1,30.13,WNW,293,0.9,4.5,47,0.00,,,0.00,WUHU216HW,2013-01-23 23:04:00,
2013-01-23 18:09:00,38.5,20.4,30.13,WNW,293,1.8,2.9,48,0.00,,,0.00,WUHU216HW,2013-01-23 23:09:00,
2013-01-23 18:14:00,38.5,20.4,30.13,WSW,248,1.3,2.5,48,0.00,,,0.00,WUHU216HW,2013-01-23 23:14:00,
2013-01-23 18:19:00,38.3,20.3,30.12,West,270,0.7,2.0,48,0.00,,,0.00,WUHU216HW,2013-01-23 23:19:00,
2013-01-23 18:24:00,38.2,20.2,30.13,West,270,1.3,2.0,48,0.00,,,0.00,WUHU216HW,2013-01-23 23:24:00,
2013-01-23 18:29:00,38.0,20.5,30.12,West,270,1.8,2.0,49,0.00,,,0.00,WUHU216HW,2013-01-23 23:29:00,
2013-01-23 18:34:00,37.8,20.9,30.12,West,270,1.8,2.0,50,0.00,,,0.00,WUHU216HW,2013-01-23 23:34:00,
2013-01-23 18:39:00,37.8,20.9,30.12,West,270,1.8,2.7,50,0.00,,,0.00,WUHU216HW,2013-01-23 23:39:00,
2013-01-23 18:44:00,37.8,20.9,30.12,West,270,2.0,2.7,50,0.00,,,0.00,WUHU216HW,2013-01-23 23:44:00,
2013-01-23 18:49:00,37.6,20.7,30.12,West,270,1.1,2.0,50,0.00,,,0.00,WUHU216HW,2013-01-23 23:49:00,
2013-01-23 18:54:00,37.6,20.7,30.12,WSW,248,1.6,2.0,50,0.00,,,0.00,WUHU216HW,2013-01-23 23:54:00,
2013-01-23 18:59:00,37.4,20.5,30.12,West,270,2.2,2.5,50,0.00,,,0.00,WUHU216HW,2013-01-23 23:59:00,
2013-01-23 19:04:00,37.4,21.0,30.11,WSW,248,2.7,2.7,51,0.00,,,0.00,WUHU216HW,2013-01-24 00:04:00,
2013-01-23 19:09:00,37.4,21.0,30.11,West,270,1.8,2.7,51,0.00,,,0.00,WUHU216HW,2013-01-24 00:09:00,
2013-01-23 19:14:00,37.4,21.4,30.11,West,270,1.8,2.7,52,0.00,,,0.00,WUHU216HW,2013-01-24 00:14:00,
2013-01-23 19:19:00,37.4,21.0,30.11,West,270,2.0,2.5,51,0.00,,,0.00,WUHU216HW,2013-01-24 00:19:00,
2013-01-23 19:24:00,37.3,21.3,30.11,West,270,1.6,2.7,52,0.00,,,0.00,WUHU216HW,2013-01-24 00:24:00,
2013-01-23 19:29:00,37.3,21.3,30.11,West,270,1.3,2.7,52,0.00,,,0.00,WUHU216HW,2013-01-24 00:29:00,
2013-01-23 19:34:00,37.3,21.3,30.11,WNW,293,2.0,2.5,52,0.00,,,0.00,WUHU216HW,2013-01-24 00:34:00,
2013-01-23 19:39:00,37.4,21.4,30.11,WNW,293,2.5,3.4,52,0.00,,,0.00,WUHU216HW,2013-01-24 00:39:00,
2013-01-23 19:44:00,37.4,21.4,30.11,West,270,1.3,3.4,52,0.00,,,0.00,WUHU216HW,2013-01-24 00:44:00,
2013-01-23 19:49:00,37.4,21.4,30.11,West,270,1.8,2.5,52,0.00,,,0.00,WUHU216HW,2013-01-24 00:49:00,
2013-01-23 19:54:00,37.3,21.3,30.10,WNW,293,2.0,2.9,52,0.00,,,0.00,WUHU216HW,2013-01-24 00:54:00,
2013-01-23 19:59:00,37.3,21.7,30.10,WNW,293,2.5,3.4,53,0.00,,,0.00,WUHU216HW,2013-01-24 00:59:00,
2013-01-23 20:04:00,37.3,21.7,30.10,WNW,293,2.0,3.4,53,0.00,,,0.00,WUHU216HW,2013-01-24 01:04:00,
2013-01-23 20:09:00,37.3,21.3,30.10,WNW,293,1.6,3.4,52,0.00,,,0.00,WUHU216HW,2013-01-24 01:09:00,
2013-01-23 20:14:00,37.3,21.3,30.11,WNW,293,2.0,2.2,52,0.00,,,0.00,WUHU216HW,2013-01-24 01:14:00,
2013-01-23 20:19:00,37.1,21.5,30.11,West,270,1.8,2.2,53,0.00,,,0.00,WUHU216HW,2013-01-24 01:19:00,
2013-01-23 20:24:00,37.1,21.5,30.10,WNW,293,2.5,2.5,53,0.00,,,0.00,WUHU216HW,2013-01-24 01:24:00,
2013-01-23 20:29:00,37.1,21.5,30.10,WNW,293,1.1,2.5,53,0.00,,,0.00,WUHU216HW,2013-01-24 01:29:00,
2013-01-23 20:34:00,37.1,21.5,30.10,West,270,2.0,2.5,53,0.00,,,0.00,WUHU216HW,2013-01-24 01:34:00,
2013-01-23 20:39:00,37.1,21.5,30.10,NW,315,1.6,2.2,53,0.00,,,0.00,WUHU216HW,2013-01-24 01:39:00,
2013-01-23 20:44:00,36.9,21.3,30.10,West,270,1.1,2.2,53,0.00,,,0.00,WUHU216HW,2013-01-24 01:44:00,
2013-01-23 20:49:00,36.9,21.3,30.09,WNW,293,1.1,1.8,53,0.00,,,0.00,WUHU216HW,2013-01-24 01:49:00,
2013-01-23 20:54:00,36.9,21.3,30.09,WNW,293,0.9,1.8,53,0.00,,,0.00,WUHU216HW,2013-01-24 01:54:00,
2013-01-23 20:59:00,36.9,21.8,30.09,WNW,293,2.5,2.5,54,0.00,,,0.00,WUHU216HW,2013-01-24 01:59:00,
2013-01-23 21:04:00,36.9,21.8,30.09,West,270,1.3,2.5,54,0.00,,,0.00,WUHU216HW,2013-01-24 02:04:00,
2013-01-23 21:09:00,36.9,21.8,30.09,WNW,293,1.3,2.5,54,0.00,,,0.00,WUHU216HW,2013-01-24 02:09:00,
2013-01-23 21:14:00,36.9,21.8,30.09,West,270,1.8,2.7,54,0.00,,,0.00,WUHU216HW,2013-01-24 02:14:00,
2013-01-23 21:19:00,36.9,21.8,30.09,WNW,293,2.2,2.7,54,0.00,,,0.00,WUHU216HW,2013-01-24 02:19:00,
2013-01-23 21:24:00,36.9,21.8,30.09,WNW,293,2.0,2.7,54,0.00,,,0.00,WUHU216HW,2013-01-24 02:24:00,
2013-01-23 21:29:00,36.7,22.1,30.08,WNW,293,1.8,3.4,55,0.00,,,0.00,WUHU216HW,2013-01-24 02:29:00,
2013-01-23 21:34:00,36.9,22.6,30.08,WNW,293,2.7,3.4,56,0.00,,,0.00,WUHU216HW,2013-01-24 02:34:00,
2013-01-23 21:39:00,37.1,22.3,30.08,West,270,2.2,3.4,55,0.00,,,0.00,WUHU216HW,2013-01-24 02:39:00,
2013-01-23 21:44:00,37.1,22.3,30.08,West,270,2.5,3.4,55,0.00,,,0.00,WUHU216HW,2013-01-24 02:44:00,
2013-01-23 21:49:00,37.1,22.8,30.08,WNW,293,2.0,3.4,56,0.00,,,0.00,WUHU216HW,2013-01-24 02:49:00,
2013-01-23 21:54:00,37.1,22.8,30.08,WNW,293,2.5,3.4,56,0.00,,,0.00,WUHU216HW,2013-01-24 02:54:00,
2013-01-23 21:59:00,37.1,22.8,30.08,NW,315,2.7,3.4,56,0.00,,,0.00,WUHU216HW,2013-01-24 02:59:00,
2013-01-23 22:04:00,36.7,22.9,30.08,WNW,293,1.8,3.4,57,0.00,,,0.00,WUHU216HW,2013-01-24 03:04:00,
2013-01-23 22:09:00,36.5,23.1,30.08,West,270,3.4,3.4,58,0.00,,,0.00,WUHU216HW,2013-01-24 03:09:00,
2013-01-23 22:14:00,36.5,22.8,30.08,NW,315,2.2,3.4,57,0.00,,,0.00,WUHU216HW,2013-01-24 03:14:00,
2013-01-23 22:19:00,36.4,23.1,30.08,NNW,338,3.1,3.4,58,0.00,,,0.00,WUHU216HW,2013-01-24 03:19:00,
2013-01-23 22:24:00,36.4,23.4,30.08,NW,315,2.2,4.0,59,0.00,,,0.00,WUHU216HW,2013-01-24 03:24:00,
2013-01-23 22:29:00,36.4,23.4,30.08,NW,315,3.4,4.0,59,0.00,,,0.00,WUHU216HW,2013-01-24 03:29:00,
2013-01-23 22:34:00,36.4,23.4,30.08,NW,315,2.9,4.0,59,0.00,,,0.00,WUHU216HW,2013-01-24 03:34:00,
2013-01-23 22:39:00,36.4,23.9,30.08,NW,315,2.7,4.3,60,0.00,,,0.00,WUHU216HW,2013-01-24 03:39:00,
2013-01-23 22:44:00,36.4,24.2,30.08,WNW,293,4.0,4.3,61,0.00,,,0.00,WUHU216HW,2013-01-24 03:44:00,
2013-01-23 22:49:00,36.7,24.6,30.08,West,270,3.1,5.4,61,0.00,,,0.00,WUHU216HW,2013-01-24 03:49:00,
2013-01-23 22:54:00,36.5,24.8,30.08,NW,315,2.5,5.4,62,0.00,,,0.00,WUHU216HW,2013-01-24 03:54:00,
2013-01-23 22:59:00,36.4,24.6,30.08,WNW,293,4.7,4.7,62,0.00,,,0.00,WUHU216HW,2013-01-24 03:59:00,
2013-01-23 23:04:00,36.7,25.3,30.09,NNW,338,3.8,5.4,63,0.00,,,0.00,WUHU216HW,2013-01-24 04:04:00,
2013-01-23 23:09:00,37.1,25.3,30.09,WNW,293,5.1,5.6,62,0.00,,,0.00,WUHU216HW,2013-01-24 04:09:00,
2013-01-23 23:14:00,37.1,25.7,30.09,West,270,4.0,5.6,63,0.00,,,0.00,WUHU216HW,2013-01-24 04:14:00,
2013-01-23 23:19:00,37.4,26.0,30.09,West,270,4.0,5.1,63,0.00,,,0.00,WUHU216HW,2013-01-24 04:19:00,
2013-01-23 23:24:00,37.6,26.1,30.09,West,270,5.1,5.1,63,0.00,,,0.00,WUHU216HW,2013-01-24 04:24:00,
2013-01-23 23:29:00,38.0,26.5,30.08,West,270,4.7,5.6,63,0.00,,,0.00,WUHU216HW,2013-01-24 04:29:00,
2013-01-23 23:34:00,38.5,26.9,30.08,NW,315,4.9,9.2,63,0.00,,,0.00,WUHU216HW,2013-01-24 04:34:00,
2013-01-23 23:39:00,38.5,26.9,30.09,West,270,5.1,9.2,63,0.00,,,0.00,WUHU216HW,2013-01-24 04:39:00,
2013-01-23 23:44:00,38.9,27.3,30.08,NW,315,4.3,6.3,63,0.00,,,0.00,WUHU216HW,2013-01-24 04:44:00,
2013-01-23 23:49:00,39.1,27.5,30.08,WNW,293,4.7,9.4,63,0.00,,,0.00,WUHU216HW,2013-01-24 04:49:00,
2013-01-23 23:54:00,39.2,27.6,30.08,WNW,293,4.0,9.4,63,0.00,,,0.00,WUHU216HW,2013-01-24 04:54:00,
2013-01-23 23:59:00,39.6,28.0,30.08,West,270,4.5,7.4,63,0.00,,,0.00,WUHU216HW,2013-01-24 04:59:00,